Track STARLINK-2462 now! 10-day predictions STARLINK-2462 is classified as:
1 48121U 21027AF 22185.91884403 -.00002582 00000-0 -15449-3 0 9998 2 48121 53.0550 74.0436 0001422 80.6999 279.4151 15.06396342 70016